Time,TemperatureF,DewpointF,PressureIn,WindDirection,WindDirectionDegrees,WindSpeedMPH,WindSpeedGustMPH,Humidity,HourlyPrecipIn,Conditions,Clouds,dailyrainin,SoftwareType,DateUTC
2013-10-20 00:13:00,40.1,35.7,30.07,West,270,2.2,-999.0,84,-99.99,,,0.00,Acu-Link.com,2013-10-20 04:13:00,
2013-10-20 00:28:00,39.9,35.5,30.07,West,270,1.7,-999.0,84,-99.99,,,0.00,Acu-Link.com,2013-10-20 04:28:00,
2013-10-20 00:43:00,40.3,35.9,30.07,West,270,1.7,-999.0,84,-99.99,,,0.00,Acu-Link.com,2013-10-20 04:43:00,
2013-10-20 00:59:00,40.1,35.7,30.07,West,270,0.0,-999.0,84,-99.99,,,0.00,Acu-Link.com,2013-10-20 04:59:00,
2013-10-20 01:14:00,39.6,35.2,30.07,WSW,247,0.0,-999.0,84,-99.99,,,0.00,Acu-Link.com,2013-10-20 05:14:00,
2013-10-20 01:29:00,39.0,34.6,30.08,WSW,247,0.0,-999.0,84,-99.99,,,0.00,Acu-Link.com,2013-10-20 05:29:00,
2013-10-20 01:44:00,39.0,34.6,30.08,West,270,0.0,-999.0,84,-99.99,,,0.00,Acu-Link.com,2013-10-20 05:44:00,
2013-10-20 01:59:00,39.2,34.8,30.08,West,270,0.0,-999.0,84,-99.99,,,0.00,Acu-Link.com,2013-10-20 05:59:00,
2013-10-20 02:14:00,38.1,33.7,30.08,West,270,0.0,-999.0,84,-99.99,,,0.00,Acu-Link.com,2013-10-20 06:14:00,
2013-10-20 02:30:00,37.9,33.5,30.08,West,270,0.0,-999.0,84,-99.99,,,0.00,Acu-Link.com,2013-10-20 06:30:00,
2013-10-20 02:45:00,37.4,33.0,30.09,West,270,0.0,-999.0,84,-99.99,,,0.00,Acu-Link.com,2013-10-20 06:45:00,
2013-10-20 03:00:00,37.2,32.8,30.10,West,270,0.0,-999.0,84,-99.99,,,0.00,Acu-Link.com,2013-10-20 07:00:00,
2013-10-20 03:15:00,37.0,32.6,30.09,West,270,0.0,-999.0,84,-99.99,,,0.00,Acu-Link.com,2013-10-20 07:15:00,
2013-10-20 03:30:00,36.9,32.5,30.10,West,270,0.0,-999.0,84,-99.99,,,0.00,Acu-Link.com,2013-10-20 07:30:00,
2013-10-20 03:45:00,36.5,32.1,30.10,West,270,0.0,-999.0,84,-99.99,,,0.00,Acu-Link.com,2013-10-20 07:45:00,
2013-10-20 04:00:00,35.8,31.4,30.09,West,270,0.0,-999.0,84,-99.99,,,0.00,Acu-Link.com,2013-10-20 08:00:00,
2013-10-20 04:16:00,36.0,31.6,30.09,WSW,247,0.0,-999.0,84,-99.99,,,0.00,Acu-Link.com,2013-10-20 08:16:00,
2013-10-20 04:31:00,35.6,31.3,30.09,WSW,247,0.0,-999.0,84,-99.99,,,0.00,Acu-Link.com,2013-10-20 08:31:00,
2013-10-20 04:47:00,35.4,31.1,30.09,WSW,247,0.0,-999.0,84,-99.99,,,0.00,Acu-Link.com,2013-10-20 08:47:00,
2013-10-20 05:02:00,34.9,30.6,30.09,WSW,247,0.0,-999.0,84,-99.99,,,0.00,Acu-Link.com,2013-10-20 09:02:00,
2013-10-20 05:17:00,34.7,30.4,30.09,WSW,247,0.0,-999.0,84,-99.99,,,0.00,Acu-Link.com,2013-10-20 09:17:00,
2013-10-20 05:32:00,34.7,30.4,30.10,WSW,247,0.0,-999.0,84,-99.99,,,0.00,Acu-Link.com,2013-10-20 09:32:00,
2013-10-20 05:47:00,35.2,30.9,30.10,West,270,0.0,-999.0,84,-99.99,,,0.00,Acu-Link.com,2013-10-20 09:47:00,
2013-10-20 06:02:00,35.8,31.4,30.11,West,270,0.0,-999.0,84,-99.99,,,0.00,Acu-Link.com,2013-10-20 10:02:00,
2013-10-20 06:17:00,36.7,32.3,30.11,West,270,0.0,-999.0,84,-99.99,,,0.00,Acu-Link.com,2013-10-20 10:17:00,
2013-10-20 06:32:00,37.2,32.8,30.11,West,270,0.0,-999.0,84,-99.99,,,0.00,Acu-Link.com,2013-10-20 10:32:00,
2013-10-20 06:48:00,37.8,33.4,30.11,West,270,0.0,-999.0,84,-99.99,,,0.00,Acu-Link.com,2013-10-20 10:48:00,
2013-10-20 07:03:00,37.9,33.5,30.11,West,270,0.0,-999.0,84,-99.99,,,0.00,Acu-Link.com,2013-10-20 11:03:00,
2013-10-20 07:18:00,38.7,34.3,30.11,WSW,247,0.0,-999.0,84,-99.99,,,0.00,Acu-Link.com,2013-10-20 11:18:00,
2013-10-20 07:33:00,39.0,34.6,30.12,WSW,247,0.0,-999.0,84,-99.99,,,0.00,Acu-Link.com,2013-10-20 11:33:00,
2013-10-20 07:48:00,39.6,35.2,30.12,WSW,247,0.0,-999.0,84,-99.99,,,0.00,Acu-Link.com,2013-10-20 11:48:00,
2013-10-20 08:03:00,40.1,35.7,30.12,SW,225,0.0,-999.0,84,-99.99,,,0.00,Acu-Link.com,2013-10-20 12:03:00,
2013-10-20 08:19:00,40.5,36.1,30.13,WSW,247,0.0,-999.0,84,-99.99,,,0.00,Acu-Link.com,2013-10-20 12:19:00,
2013-10-20 08:34:00,40.8,36.3,30.14,WSW,247,0.0,-999.0,84,-99.99,,,0.00,Acu-Link.com,2013-10-20 12:34:00,
2013-10-20 08:49:00,41.4,36.9,30.14,NW,315,0.0,-999.0,84,-99.99,,,0.00,Acu-Link.com,2013-10-20 12:49:00,
2013-10-20 09:04:00,41.7,37.2,30.14,WNW,292,0.0,-999.0,84,-99.99,,,0.00,Acu-Link.com,2013-10-20 13:04:00,
2013-10-20 09:19:00,43.0,38.5,30.14,ENE,67,1.7,-999.0,84,-99.99,,,0.00,Acu-Link.com,2013-10-20 13:19:00,
2013-10-20 09:34:00,44.4,39.9,30.14,ENE,67,1.7,-999.0,84,-99.99,,,0.00,Acu-Link.com,2013-10-20 13:34:00,
2013-10-20 09:49:00,46.2,41.6,30.14,SE,135,2.2,-999.0,84,-99.99,,,0.00,Acu-Link.com,2013-10-20 13:49:00,
2013-10-20 10:04:00,50.7,44.8,30.13,NNE,22,2.7,-999.0,80,-99.99,,,0.00,Acu-Link.com,2013-10-20 14:04:00,
2013-10-20 10:19:00,52.5,39.4,30.13,ESE,112,3.7,-999.0,61,-99.99,,,0.00,Acu-Link.com,2013-10-20 14:19:00,
2013-10-20 10:35:00,54.9,38.6,30.12,ESE,112,3.2,-999.0,54,-99.99,,,0.00,Acu-Link.com,2013-10-20 14:35:00,
2013-10-20 10:50:00,56.3,38.4,30.11,ESE,112,4.7,-999.0,51,-99.99,,,0.00,Acu-Link.com,2013-10-20 14:50:00,
2013-10-20 11:05:00,55.9,37.0,30.11,SE,135,3.2,-999.0,49,-99.99,,,0.00,Acu-Link.com,2013-10-20 15:05:00,
2013-10-20 11:20:00,57.6,38.6,30.10,North,0,3.7,-999.0,49,-99.99,,,0.00,Acu-Link.com,2013-10-20 15:20:00,
2013-10-20 11:35:00,58.6,39.5,30.10,SSE,157,4.2,-999.0,49,-99.99,,,0.00,Acu-Link.com,2013-10-20 15:35:00,
2013-10-20 11:50:00,60.3,35.9,30.09,WSW,247,1.7,-999.0,40,-99.99,,,0.00,Acu-Link.com,2013-10-20 15:50:00,
2013-10-20 12:05:00,61.9,35.3,30.08,ESE,112,5.3,-999.0,37,-99.99,,,0.00,Acu-Link.com,2013-10-20 16:05:00,
2013-10-20 12:21:00,62.1,35.5,30.08,ESE,112,3.7,-999.0,37,-99.99,,,0.00,Acu-Link.com,2013-10-20 16:21:00,
2013-10-20 12:36:00,62.8,35.4,30.07,WNW,292,2.2,-999.0,36,-99.99,,,0.00,Acu-Link.com,2013-10-20 16:36:00,
2013-10-20 12:51:00,63.3,34.5,30.06,East,90,1.1,-999.0,34,-99.99,,,0.00,Acu-Link.com,2013-10-20 16:51:00,
2013-10-20 13:06:00,64.9,33.5,30.06,North,0,2.7,-999.0,31,-99.99,,,0.00,Acu-Link.com,2013-10-20 17:06:00,
2013-10-20 13:22:00,66.6,32.5,30.05,East,90,4.2,-999.0,28,-99.99,,,0.00,Acu-Link.com,2013-10-20 17:22:00,
2013-10-20 13:37:00,65.8,32.7,30.04,East,90,4.7,-999.0,29,-99.99,,,0.00,Acu-Link.com,2013-10-20 17:37:00,
2013-10-20 13:52:00,66.0,32.0,30.03,NNW,337,3.7,-999.0,28,-99.99,,,0.00,Acu-Link.com,2013-10-20 17:52:00,
2013-10-20 14:07:00,67.1,32.0,30.02,NNW,337,1.7,-999.0,27,-99.99,,,0.00,Acu-Link.com,2013-10-20 18:07:00,
2013-10-20 14:23:00,68.5,31.3,30.02,ESE,112,3.2,-999.0,25,-99.99,,,0.00,Acu-Link.com,2013-10-20 18:23:00,
2013-10-20 14:38:00,69.1,34.6,30.01,SSE,157,2.7,-999.0,28,-99.99,,,0.00,Acu-Link.com,2013-10-20 18:38:00,
2013-10-20 14:54:00,69.3,29.9,30.01,ESE,112,4.2,-999.0,23,-99.99,,,0.00,Acu-Link.com,2013-10-20 18:54:00,
2013-10-20 15:09:00,70.3,30.7,30.00,NNE,22,5.3,-999.0,23,-99.99,,,0.00,Acu-Link.com,2013-10-20 19:09:00,
2013-10-20 15:25:00,70.2,29.6,30.01,West,270,3.2,-999.0,22,-99.99,,,0.00,Acu-Link.com,2013-10-20 19:25:00,
2013-10-20 15:40:00,70.7,26.4,30.00,East,90,2.2,-999.0,19,-99.99,,,0.00,Acu-Link.com,2013-10-20 19:40:00,
2013-10-20 15:57:00,71.1,25.4,30.00,NNE,22,1.7,-999.0,18,-99.99,,,0.00,Acu-Link.com,2013-10-20 19:57:00,
2013-10-20 16:12:00,71.6,24.5,30.00,ENE,67,4.2,-999.0,17,-99.99,,,0.00,Acu-Link.com,2013-10-20 20:12:00,
2013-10-20 16:27:00,70.2,23.4,29.99,NE,45,4.2,-999.0,17,-99.99,,,0.00,Acu-Link.com,2013-10-20 20:27:00,
2013-10-20 16:42:00,70.7,26.4,30.00,WNW,292,0.0,-999.0,19,-99.99,,,0.00,Acu-Link.com,2013-10-20 20:42:00,
2013-10-20 16:57:00,70.9,25.3,30.00,ESE,112,4.7,-999.0,18,-99.99,,,0.00,Acu-Link.com,2013-10-20 20:57:00,
2013-10-20 17:12:00,70.3,26.1,30.00,NNW,337,2.7,-999.0,19,-99.99,,,0.00,Acu-Link.com,2013-10-20 21:12:00,
2013-10-20 17:27:00,68.5,24.6,30.01,South,180,1.1,-999.0,19,-99.99,,,0.00,Acu-Link.com,2013-10-20 21:27:00,
2013-10-20 17:43:00,66.4,31.4,30.02,West,270,0.0,-999.0,27,-99.99,,,0.00,Acu-Link.com,2013-10-20 21:43:00,
2013-10-20 17:58:00,61.9,33.2,30.02,West,270,2.2,-999.0,34,-99.99,,,0.00,Acu-Link.com,2013-10-20 21:58:00,
2013-10-20 18:13:00,58.5,36.1,30.02,West,270,2.2,-999.0,43,-99.99,,,0.00,Acu-Link.com,2013-10-20 22:13:00,
2013-10-20 18:28:00,56.3,38.4,30.03,West,270,2.2,-999.0,51,-99.99,,,0.00,Acu-Link.com,2013-10-20 22:28:00,
2013-10-20 18:43:00,54.1,38.8,30.03,WNW,292,1.7,-999.0,56,-99.99,,,0.00,Acu-Link.com,2013-10-20 22:43:00,
2013-10-20 18:58:00,52.2,39.6,30.03,West,270,0.0,-999.0,62,-99.99,,,0.00,Acu-Link.com,2013-10-20 22:58:00,
2013-10-20 19:13:00,50.4,39.1,30.04,WNW,292,0.0,-999.0,65,-99.99,,,0.00,Acu-Link.com,2013-10-20 23:13:00,
2013-10-20 19:28:00,48.7,39.0,30.05,WNW,292,0.0,-999.0,69,-99.99,,,0.00,Acu-Link.com,2013-10-20 23:28:00,
2013-10-20 19:43:00,47.5,38.2,30.05,WNW,292,0.0,-999.0,70,-99.99,,,0.00,Acu-Link.com,2013-10-20 23:43:00,
2013-10-20 19:59:00,46.4,38.2,30.06,West,270,0.0,-999.0,73,-99.99,,,0.00,Acu-Link.com,2013-10-20 23:59:00,
2013-10-20 20:14:00,45.3,37.5,30.06,West,270,0.0,-999.0,74,-99.99,,,0.00,Acu-Link.com,2013-10-21 00:14:00,
2013-10-20 20:29:00,44.4,37.3,30.07,West,270,0.0,-999.0,76,-99.99,,,0.00,Acu-Link.com,2013-10-21 00:29:00,
2013-10-20 20:44:00,43.7,36.6,30.06,West,270,0.0,-999.0,76,-99.99,,,0.00,Acu-Link.com,2013-10-21 00:44:00,
2013-10-20 20:59:00,43.0,36.6,30.07,West,270,0.0,-999.0,78,-99.99,,,0.00,Acu-Link.com,2013-10-21 00:59:00,
2013-10-20 21:14:00,42.4,36.0,30.09,West,270,0.0,-999.0,78,-99.99,,,0.00,Acu-Link.com,2013-10-21 01:14:00,
2013-10-20 21:29:00,41.7,36.0,30.07,West,270,0.0,-999.0,80,-99.99,,,0.00,Acu-Link.com,2013-10-21 01:29:00,
2013-10-20 21:44:00,41.2,35.5,30.07,West,270,0.0,-999.0,80,-99.99,,,0.00,Acu-Link.com,2013-10-21 01:44:00,
2013-10-20 21:59:00,40.6,34.9,30.09,West,270,0.0,-999.0,80,-99.99,,,0.00,Acu-Link.com,2013-10-21 01:59:00,
2013-10-20 22:14:00,40.1,34.4,30.09,West,270,0.0,-999.0,80,-99.99,,,0.00,Acu-Link.com,2013-10-21 02:14:00,
2013-10-20 22:30:00,39.7,34.4,30.09,West,270,0.0,-999.0,81,-99.99,,,0.00,Acu-Link.com,2013-10-21 02:30:00,
2013-10-20 22:45:00,39.2,33.6,30.10,West,270,0.0,-999.0,80,-99.99,,,0.00,Acu-Link.com,2013-10-21 02:45:00,
2013-10-20 23:00:00,38.8,33.8,30.10,West,270,0.0,-999.0,82,-99.99,,,0.00,Acu-Link.com,2013-10-21 03:00:00,
2013-10-20 23:15:00,38.1,33.1,30.10,West,270,0.0,-999.0,82,-99.99,,,0.00,Acu-Link.com,2013-10-21 03:15:00,
2013-10-20 23:30:00,37.9,33.2,30.10,West,270,0.0,-999.0,83,-99.99,,,0.00,Acu-Link.com,2013-10-21 03:30:00,
2013-10-20 23:45:00,37.6,32.9,30.10,West,270,0.0,-999.0,83,-99.99,,,0.00,Acu-Link.com,2013-10-21 03:45:00,